User: anonymous   Login
Location: Brabourne
(51.1333°N, 1.0000°E)
Time: 06:19:09
(UTC+00:00)
Language:

IRS-1D - Orbit

View from above orbital plane
View from above orbital plane
View from above satellite
View from above satellite

Ground track
Ground track

The orbit data is extracted from the following two-line orbital elements,

1 24971U 97057A   21263.65054873  .00000025  00000-0  24826-4 0  9996
2 24971  98.6157 211.5415 0052532 291.0240  68.5336 14.34048290254484
Epoch (UTC): 20 September 2021 15:36:47
Eccentricity: 0.0052532
inclination: 98.6157°
perigee height: 740 km
apogee height: 816 km
right ascension of ascending node: 211.5415°
argument of perigee: 291.0240°
revolutions per day: 14.34048290
mean anomaly at epoch: 68.5336°
orbit number at epoch: 25448

The dashed part of the orbit path shows where the satellite is in the earth's shadow,  

DLR